COSMOS 886 DEB, 9956

Orbit data source: Space-Track

COSMOS 886 DEB, 9956 is space debris in LEO originally from a launch on Mon, 27 Dec 1976 UTC launched from the Tyuratam Missile And Space Complex (TTMTR). Debris objects in space refer to the collection of defunct objects orbiting the Earth. Examples of debris include non-operational satellites, rocket bodies, and fragments generated from explosions, collisions, or faulty payload assembly.

Loading next visibility...
Identifier
9956, 1976-126AW
Orbit
LEO
Country
Flag of CISCIS
Related business
Manufacturer
Unknown
Mission
Spacecraft
Bus & Motor
Unknown
Mass
Unknown
Launch date (UTC)
1976-12-27 (49 years ago)
Launch vehicle
Unknown
Launch site
Tyuratam Missile And Space Complex (TTMTR)
Object type
Payload
Rocket body
Debris
Shape & HBR
Unknown shape, 0.1 m
Radar Cross Section
Small (<0.1 m²)

Expand to show TLE details & history
Last TLE update: 17 hours ago

TLE from 17 hours ago
0 COSMOS 886 DEB
1 09956U 76126AW  26129.82509091  .00000009  00000-0  11487-3 0  9998
2 09956  65.7936 272.1312 0929592 316.2101  36.8672 12.36889813526425
Epoch: 2026-05-09T19:48Z
TLE epoch observation values (Epoch: 2026-05-09T19:48:07.854Z)
Latitude
-0.00006°
Longitude
107.46148°
Altitude
961.836 km
Speed
7.628 km/s
True Right ascension
18h 08m 31s
True Declination
0° 00' 00"
Sunlit
Object was in full shadow at epoch
Visualization orbit readout
Latitude
Unknown
Longitude
Unknown
Altitude
Unknown
Speed
Unknown
Apparent Right ascension
Unknown
Apparent Declination
Unknown
Sunlit
N/A
Visualization observer readout
Local Sidereal Time
21:19:03
Azimuth
Unknown
Elevation
Unknown
Doppler factor
Unknown
Orbital elements
Apogee altitude
2,252.478 km
Perigee altitude
784.363 km
Semi-major axis
7,896.557 km
Eccentricity
0.09296
Inclination
65.7936°
RAAN
272.1312°
Arg. of periapsis
316.2101°
True anomaly
43.89236°
Mean anomaly
36.8672°
Eccentric anomaly
40.31304°
Mean motion
3.09305 °/min
Orbital period
116.39 mins
BSTAR
0.00011487
Loading maneuver chart data...
Computing Atmospheric mass density...
Loading historical data...
Loading historical data...
Loading historical data...
Loading historical data...
Loading historical data...
Loading historical data...
Loading historical data...

Documentation

Showing up to 5 results
|